KLM641 EHAM-KJFK

Flight info

Callsign KLM641
Flight time 5h 0m
Altitude 36000
Route BERGI2Z BERGI L602 NALAX L46 GETNO DCT NIBOG DCT RESNO/M082F370 NATB ELSIR/N0471F380 N406A TOPPS DCT ENE PARCH3
Aircraft B77L/H-SDE1E2E3FGHIJ2J3J4J5M1RWXY/LB1D1

Departure

Time 2026-05-08 13:14
Airport Amsterdam Airport Schiphol (EHAM)

Arrival

Time 2026-05-08 18:15
Airport John F. Kennedy International Airport (KJFK)
Time Latitude Longitude Altitude Speed Heading
2026-05-08 11:46 52.31233 4.76307 0 ft 0 kts 268°
2026-05-08 12:59 52.31233 4.76309 0 ft 2 kts 268°
2026-05-08 12:59 52.31233 4.76336 2 ft 2 kts 272°
2026-05-08 12:59 52.31232 4.76363 2 ft 2 kts 282°
2026-05-08 13:00 52.31227 4.76389 4 ft 2 kts 297°
2026-05-08 13:00 52.31218 4.76411 3 ft 2 kts 327°
2026-05-08 13:00 52.31202 4.76421 1 ft 2 kts
2026-05-08 13:00 52.31195 4.76421 1 ft 0 kts
2026-05-08 13:01 52.31196 4.76421 1 ft 0 kts
2026-05-08 13:01 52.31195 4.76421 1 ft 0 kts
2026-05-08 13:04 52.31199 4.76422 1 ft 4 kts
2026-05-08 13:04 52.31263 4.76440 1 ft 11 kts 10°
2026-05-08 13:05 52.31337 4.76439 2 ft 11 kts 348°
2026-05-08 13:05 52.31409 4.76407 3 ft 11 kts 343°
2026-05-08 13:05 52.31479 4.76366 4 ft 11 kts 338°
2026-05-08 13:05 52.31534 4.76286 4 ft 11 kts 296°
2026-05-08 13:06 52.31539 4.76163 4 ft 12 kts 266°
2026-05-08 13:06 52.31532 4.75971 5 ft 22 kts 267°
2026-05-08 13:06 52.31522 4.75656 -1 ft 30 kts 267°
2026-05-08 13:06 52.31509 4.75317 -3 ft 30 kts 267°
2026-05-08 13:07 52.31497 4.74979 1 ft 30 kts 266°
2026-05-08 13:07 52.31488 4.74717 2 ft 12 kts 266°
2026-05-08 13:07 52.31484 4.74584 5 ft 12 kts 267°
2026-05-08 13:07 52.31480 4.74451 6 ft 12 kts 267°
2026-05-08 13:08 52.31476 4.74311 4 ft 13 kts 267°
2026-05-08 13:08 52.31464 4.74216 4 ft 6 kts 240°
2026-05-08 13:08 52.31434 4.74167 4 ft 7 kts 214°
2026-05-08 13:08 52.31370 4.74136 3 ft 13 kts 187°
2026-05-08 13:09 52.31255 4.74123 2 ft 20 kts 184°
2026-05-08 13:09 52.31096 4.74109 0 ft 26 kts 183°
2026-05-08 13:09 52.30907 4.74092 0 ft 28 kts 182°
2026-05-08 13:09 52.30718 4.74077 0 ft 28 kts 182°
2026-05-08 13:10 52.30527 4.74057 2 ft 28 kts 184°
2026-05-08 13:10 52.30463 4.74051 2 ft 7 kts 184°
2026-05-08 13:10 52.30459 4.74050 2 ft 1 kts 183°
2026-05-08 13:10 52.30426 4.74048 2 ft 9 kts 183°
2026-05-08 13:11 52.30357 4.74040 4 ft 10 kts 187°
2026-05-08 13:11 52.30292 4.74004 3 ft 10 kts 211°
2026-05-08 13:11 52.30231 4.73928 1 ft 9 kts 221°
2026-05-08 13:11 52.30227 4.73922 1 ft 0 kts 221°
2026-05-08 13:12 52.30227 4.73921 1 ft 1 kts 221°
2026-05-08 13:13 52.30206 4.73887 1 ft 8 kts 230°
2026-05-08 13:13 52.30193 4.73804 1 ft 8 kts 274°
2026-05-08 13:13 52.30228 4.73748 1 ft 8 kts 353°
2026-05-08 13:13 52.30371 4.73752 0 ft 43 kts
2026-05-08 13:14 52.30926 4.73803 2 ft 115 kts
2026-05-08 13:14 52.31928 4.73901 6 ft 170 kts
2026-05-08 13:14 52.33129 4.74011 532 ft 171 kts
2026-05-08 13:14 52.34333 4.74181 1218 ft 176 kts
2026-05-08 13:15 52.35562 4.74032 1736 ft 190 kts 345°
2026-05-08 13:15 52.36898 4.73340 2032 ft 216 kts 344°
2026-05-08 13:15 52.38420 4.72596 2520 ft 238 kts 343°
2026-05-08 13:15 52.40062 4.71799 3099 ft 252 kts 344°
2026-05-08 13:16 52.41702 4.70708 3813 ft 259 kts 330°
2026-05-08 13:16 52.43246 4.69118 4647 ft 264 kts 326°
2026-05-08 13:16 52.44757 4.67456 5516 ft 266 kts 326°
2026-05-08 13:16 52.46307 4.65756 6377 ft 269 kts 326°
2026-05-08 13:17 52.47886 4.64056 7164 ft 274 kts 327°
2026-05-08 13:17 52.49498 4.62343 7930 ft 279 kts 327°
2026-05-08 13:17 52.51143 4.60613 8721 ft 283 kts 327°
2026-05-08 13:17 52.52820 4.58861 9523 ft 288 kts 327°
2026-05-08 13:18 52.54512 4.57052 10248 ft 289 kts 320°
2026-05-08 13:18 52.55937 4.54643 10643 ft 305 kts 307°
2026-05-08 13:18 52.57245 4.51725 10845 ft 330 kts 304°
2026-05-08 13:18 52.58596 4.48504 11056 ft 355 kts 303°
2026-05-08 13:19 52.60028 4.45089 11645 ft 367 kts 304°
2026-05-08 13:19 52.61512 4.41606 12477 ft 374 kts 304°
2026-05-08 13:19 52.63032 4.38098 13455 ft 378 kts 304°
2026-05-08 13:19 52.64558 4.34616 14379 ft 382 kts 304°
2026-05-08 13:20 52.66132 4.31052 15261 ft 385 kts 305°
2026-05-08 13:20 52.67724 4.27461 16138 ft 388 kts 304°
2026-05-08 13:20 52.69324 4.23858 17016 ft 392 kts 304°
2026-05-08 13:20 52.70945 4.20208 17862 ft 396 kts 304°
2026-05-08 13:21 52.72579 4.16523 18665 ft 400 kts 304°
2026-05-08 13:21 52.74228 4.12799 19364 ft 404 kts 304°
2026-05-08 13:21 52.75895 4.09031 20039 ft 409 kts 304°
2026-05-08 13:21 52.77565 4.05248 20722 ft 413 kts 304°
2026-05-08 13:22 52.79269 4.01382 21388 ft 418 kts 304°
2026-05-08 13:22 52.80989 3.97473 22067 ft 422 kts 304°
2026-05-08 13:22 52.82731 3.93510 22714 ft 427 kts 304°
2026-05-08 13:22 52.84480 3.89523 23384 ft 431 kts 304°
2026-05-08 13:23 52.86253 3.85476 23989 ft 435 kts 304°
2026-05-08 13:23 52.88038 3.81397 24566 ft 438 kts 304°
2026-05-08 13:23 52.89805 3.77351 25169 ft 440 kts 304°
2026-05-08 13:23 52.91602 3.73229 25779 ft 442 kts 304°
2026-05-08 13:24 52.93412 3.69071 26373 ft 445 kts 304°
2026-05-08 13:24 52.95233 3.64880 26912 ft 448 kts 304°
2026-05-08 13:24 52.97057 3.60674 27477 ft 451 kts 304°
2026-05-08 13:24 52.98892 3.56437 28019 ft 453 kts 304°
2026-05-08 13:25 53.00739 3.52164 28554 ft 456 kts 304°
2026-05-08 13:25 53.02595 3.47865 29070 ft 458 kts 304°
2026-05-08 13:25 53.04461 3.43536 29569 ft 461 kts 304°
2026-05-08 13:25 53.06304 3.39252 30035 ft 463 kts 304°
2026-05-08 13:26 53.09599 3.29940 30138 ft 468 kts 293°
2026-05-08 13:26 53.11620 3.19671 30587 ft 467 kts 282°
2026-05-08 13:27 53.12304 3.14394 31200 ft 463 kts 282°
2026-05-08 13:27 53.12966 3.09174 31850 ft 458 kts 282°
2026-05-08 13:27 53.13624 3.04009 32458 ft 454 kts 283°
2026-05-08 13:27 53.14285 2.98876 33012 ft 452 kts 283°
2026-05-08 13:28 53.14950 2.93758 33517 ft 450 kts 283°
2026-05-08 13:28 53.15615 2.88662 34003 ft 449 kts 283°
2026-05-08 13:28 53.16269 2.83646 34423 ft 447 kts 283°
2026-05-08 13:28 53.16930 2.78573 34735 ft 448 kts 283°
2026-05-08 13:29 53.17589 2.73491 35005 ft 449 kts 283°
2026-05-08 13:29 53.18246 2.68397 35295 ft 450 kts 283°
2026-05-08 13:29 53.18903 2.63292 35617 ft 450 kts 283°
2026-05-08 13:29 53.19557 2.58189 35912 ft 450 kts 282°
2026-05-08 13:30 53.20211 2.53071 36065 ft 454 kts 282°
2026-05-08 13:30 53.20870 2.47883 36115 ft 457 kts 282°
2026-05-08 13:30 53.22166 2.37541 36136 ft 452 kts 282°
2026-05-08 13:31 53.23434 2.27330 36146 ft 447 kts 282°
2026-05-08 13:31 53.24680 2.17233 36143 ft 446 kts 282°
2026-05-08 13:32 53.25926 2.07071 36150 ft 446 kts 282°
2026-05-08 13:32 53.27350 1.96991 36143 ft 445 kts 289°
2026-05-08 13:33 53.29327 1.87255 36152 ft 445 kts 289°
2026-05-08 13:33 53.31335 1.77433 36148 ft 446 kts 289°
2026-05-08 13:34 53.38214 1.42851 36168 ft 447 kts 288°
2026-05-08 13:34 53.67786 -0.14183 36153 ft 445 kts 286°
2026-05-08 13:35 53.95367 -1.74040 36111 ft 441 kts 284°
2026-05-08 13:35 54.20475 -3.33753 36109 ft 437 kts 282°
2026-05-08 13:36 54.43346 -4.94649 36112 ft 433 kts 279°
2026-05-08 13:36 54.64018 -6.56939 36133 ft 433 kts 277°
2026-05-08 13:37 54.82384 -8.19685 36157 ft 433 kts 276°
2026-05-08 13:37 54.98764 -9.86279 36172 ft 434 kts 274°
2026-05-08 13:38 55.00962 -10.17887 36106 ft 422 kts 266°
2026-05-08 13:38 55.00919 -10.23002 36164 ft 422 kts 264°
2026-05-08 13:38 55.01174 -10.68890 36256 ft 436 kts 267°
2026-05-08 13:39 55.02116 -11.44878 36221 ft 438 kts 267°
2026-05-08 13:39 55.02199 -11.55381 36193 ft 430 kts 266°
2026-05-08 13:40 55.02272 -11.65759 36192 ft 429 kts 266°
2026-05-08 13:40 55.02337 -11.76177 36202 ft 430 kts 266°
2026-05-08 13:41 55.02395 -11.86614 36203 ft 432 kts 266°
2026-05-08 13:41 55.02444 -11.97119 36197 ft 433 kts 266°
2026-05-08 13:42 55.02479 -12.05864 36206 ft 435 kts 266°
2026-05-08 13:42 55.02517 -12.18156 36207 ft 437 kts 266°
2026-05-08 13:43 55.02538 -12.27048 36200 ft 438 kts 266°
2026-05-08 13:43 55.02553 -12.37617 36205 ft 439 kts 266°
2026-05-08 13:44 55.02559 -12.48258 36204 ft 440 kts 266°
2026-05-08 13:44 55.02556 -12.58934 36208 ft 440 kts 266°
2026-05-08 13:45 55.02544 -12.69601 36216 ft 440 kts 266°
2026-05-08 13:45 55.02522 -12.80282 36206 ft 440 kts 266°
2026-05-08 13:46 55.02491 -12.90957 36210 ft 440 kts 266°
2026-05-08 13:46 55.02451 -13.01575 36212 ft 441 kts 266°
2026-05-08 13:47 55.02401 -13.12259 36215 ft 441 kts 266°
2026-05-08 13:47 55.02342 -13.22963 36222 ft 441 kts 266°
2026-05-08 13:48 55.02273 -13.33665 36220 ft 442 kts 266°
2026-05-08 13:48 55.02195 -13.44385 36221 ft 443 kts 266°
2026-05-08 13:49 55.02107 -13.55128 36223 ft 443 kts 266°
2026-05-08 13:49 55.02010 -13.65881 36230 ft 444 kts 266°
2026-05-08 13:50 55.01902 -13.76662 36224 ft 445 kts 266°
2026-05-08 13:50 55.01786 -13.87398 36231 ft 446 kts 266°
2026-05-08 13:51 55.01660 -13.98221 36228 ft 447 kts 266°
2026-05-08 13:51 55.01523 -14.09081 36232 ft 448 kts 266°
2026-05-08 13:52 55.01376 -14.19959 36232 ft 448 kts 266°
2026-05-08 13:52 55.01220 -14.30832 36239 ft 449 kts 266°
2026-05-08 13:53 55.01054 -14.41669 36237 ft 450 kts 266°
2026-05-08 13:53 55.00878 -14.52577 36238 ft 450 kts 266°
2026-05-08 13:54 55.00692 -14.63497 36242 ft 451 kts 266°
2026-05-08 13:54 55.00497 -14.74351 36247 ft 451 kts 266°
2026-05-08 13:55 55.00292 -14.85298 36246 ft 452 kts 266°
2026-05-08 13:56 55.00011 -15.01750 36246 ft 453 kts 269°
2026-05-08 13:56 55.00201 -15.12743 36254 ft 454 kts 270°
2026-05-08 13:57 55.00438 -15.23688 36253 ft 455 kts 270°
2026-05-08 13:57 55.00656 -15.34709 36254 ft 455 kts 270°
2026-05-08 13:58 55.00851 -15.45751 36256 ft 456 kts 270°
2026-05-08 13:58 55.01031 -15.56802 36254 ft 456 kts 270°
2026-05-08 13:59 55.01200 -15.67865 36260 ft 457 kts 270°
2026-05-08 13:59 55.01361 -15.78969 36262 ft 458 kts 270°
2026-05-08 14:00 55.01510 -15.90000 36261 ft 459 kts 270°
2026-05-08 14:00 55.01651 -16.01123 36268 ft 458 kts 270°
2026-05-08 14:01 55.01782 -16.12241 36266 ft 459 kts 270°
2026-05-08 14:01 55.01903 -16.23366 36275 ft 459 kts 270°
2026-05-08 14:02 55.02013 -16.34521 36274 ft 460 kts 270°
2026-05-08 14:02 55.02113 -16.45610 36275 ft 461 kts 270°
2026-05-08 14:03 55.02204 -16.56782 36279 ft 461 kts 270°
2026-05-08 14:03 55.02284 -16.67978 36276 ft 462 kts 270°
2026-05-08 14:04 55.02354 -16.79179 36278 ft 462 kts 270°
2026-05-08 14:04 55.02414 -16.90338 36281 ft 462 kts 270°
2026-05-08 14:05 55.02464 -17.01573 36285 ft 463 kts 270°
2026-05-08 14:05 55.02503 -17.12810 36287 ft 463 kts 270°
2026-05-08 14:06 55.02532 -17.24056 36286 ft 464 kts 270°
2026-05-08 14:06 55.02551 -17.35312 36292 ft 464 kts 270°
2026-05-08 14:07 55.02560 -17.46530 36296 ft 465 kts 270°
2026-05-08 14:07 55.02558 -17.57814 36298 ft 465 kts 270°
2026-05-08 14:08 55.02545 -17.69095 36294 ft 466 kts 270°
2026-05-08 14:08 55.02523 -17.80393 36298 ft 466 kts 270°
2026-05-08 14:09 55.02489 -17.91644 36299 ft 467 kts 270°
2026-05-08 14:09 55.02445 -18.02973 36301 ft 468 kts 270°
2026-05-08 14:10 55.02391 -18.14346 36305 ft 469 kts 270°
2026-05-08 14:10 55.02326 -18.25662 36307 ft 470 kts 270°
2026-05-08 14:11 55.02250 -18.37082 36307 ft 470 kts 271°
2026-05-08 14:11 55.02163 -18.48441 36306 ft 471 kts 271°
2026-05-08 14:12 55.02065 -18.59865 36309 ft 471 kts 270°
2026-05-08 14:12 55.01957 -18.71294 36312 ft 472 kts 271°
2026-05-08 14:13 55.01839 -18.82737 36313 ft 472 kts 270°
2026-05-08 14:13 55.01590 -19.03852 36313 ft 474 kts 270°
2026-05-08 14:14 55.01278 -19.26867 36321 ft 475 kts 270°
2026-05-08 14:14 55.00922 -19.49956 36323 ft 477 kts 270°
2026-05-08 14:15 55.00520 -19.73101 36326 ft 478 kts 270°
2026-05-08 14:15 55.00079 -19.96151 36331 ft 479 kts 270°
2026-05-08 14:16 54.98929 -20.19380 36306 ft 482 kts 266°
2026-05-08 14:16 54.97492 -20.42581 36331 ft 482 kts 267°
2026-05-08 14:17 54.96065 -20.65781 36342 ft 482 kts 267°
2026-05-08 14:17 54.94592 -20.89018 36341 ft 483 kts 267°
2026-05-08 14:18 54.93082 -21.12098 36347 ft 483 kts 267°
2026-05-08 14:18 54.91514 -21.35386 36343 ft 484 kts 267°
2026-05-08 14:19 54.89900 -21.58662 36355 ft 485 kts 267°
2026-05-08 14:19 54.88250 -21.81802 36360 ft 486 kts 267°
2026-05-08 14:20 54.86544 -22.05101 36353 ft 486 kts 267°
2026-05-08 14:20 54.84788 -22.28430 36364 ft 488 kts 267°
2026-05-08 14:21 54.82994 -22.51674 36368 ft 488 kts 267°
2026-05-08 14:21 54.81145 -22.75013 36374 ft 489 kts 268°
2026-05-08 14:22 54.79248 -22.98389 36376 ft 489 kts 268°
2026-05-08 14:22 54.77304 -23.21734 36375 ft 489 kts 268°
2026-05-08 14:23 54.75331 -23.44896 36383 ft 489 kts 268°
2026-05-08 14:23 54.73300 -23.68188 36385 ft 488 kts 268°
2026-05-08 14:24 54.71226 -23.91441 36393 ft 488 kts 268°
2026-05-08 14:24 54.69127 -24.14463 36397 ft 487 kts 268°
2026-05-08 14:25 54.66970 -24.37617 36395 ft 487 kts 268°
2026-05-08 14:25 54.64773 -24.60701 36398 ft 486 kts 268°
2026-05-08 14:26 54.62531 -24.83764 36402 ft 486 kts 268°
2026-05-08 14:26 54.60252 -25.06746 36408 ft 486 kts 267°
2026-05-08 14:27 54.57926 -25.29725 36411 ft 485 kts 267°
2026-05-08 14:27 54.55575 -25.52510 36413 ft 485 kts 267°
2026-05-08 14:28 54.53168 -25.75382 36417 ft 484 kts 267°
2026-05-08 14:28 54.50724 -25.98175 36429 ft 484 kts 266°
2026-05-08 14:29 54.48255 -26.20783 36430 ft 483 kts 266°
2026-05-08 14:29 54.45734 -26.43445 36429 ft 482 kts 266°
2026-05-08 14:30 54.43610 -26.62231 36435 ft 481 kts 266°
2026-05-08 14:30 54.41025 -26.84735 36443 ft 480 kts 266°
2026-05-08 14:31 54.38398 -27.07202 36444 ft 479 kts 266°
2026-05-08 14:31 54.35740 -27.29562 36448 ft 478 kts 266°
2026-05-08 14:32 54.31696 -27.62874 36456 ft 477 kts 265°
2026-05-08 14:32 54.28944 -27.85085 36460 ft 476 kts 265°
2026-05-08 14:33 54.26154 -28.07242 36466 ft 476 kts 265°
2026-05-08 14:33 54.23329 -28.29331 36469 ft 476 kts 265°
2026-05-08 14:34 54.20478 -28.51280 36469 ft 476 kts 264°
2026-05-08 14:34 54.17568 -28.73337 36470 ft 475 kts 264°
2026-05-08 14:35 54.14612 -28.95407 36472 ft 475 kts 264°
2026-05-08 14:35 54.11630 -29.17349 36486 ft 475 kts 264°
2026-05-08 14:36 54.08627 -29.39117 36482 ft 474 kts 264°
2026-05-08 14:36 54.05569 -29.60969 36486 ft 474 kts 264°
2026-05-08 14:37 54.02468 -29.82820 36494 ft 474 kts 263°
2026-05-08 14:37 53.99326 -30.04585 36495 ft 474 kts 263°
2026-05-08 14:38 53.96037 -30.26161 36499 ft 474 kts 262°
2026-05-08 14:38 53.92696 -30.47838 36497 ft 473 kts 262°
2026-05-08 14:39 53.89336 -30.69407 36499 ft 472 kts 262°
2026-05-08 14:39 53.85962 -30.90785 36501 ft 471 kts 262°
2026-05-08 14:40 53.82540 -31.12190 36499 ft 471 kts 262°
2026-05-08 14:40 53.79079 -31.33565 36505 ft 470 kts 262°
2026-05-08 14:41 53.75584 -31.54881 36502 ft 470 kts 262°
2026-05-08 14:41 53.72072 -31.76037 36506 ft 470 kts 262°
2026-05-08 14:42 53.68501 -31.97288 36512 ft 470 kts 262°
2026-05-08 14:42 53.64889 -32.18519 36519 ft 470 kts 262°
2026-05-08 14:43 53.61266 -32.39562 36513 ft 470 kts 261°
2026-05-08 14:43 53.57582 -32.60712 36518 ft 470 kts 261°
2026-05-08 14:44 53.53863 -32.81802 36516 ft 470 kts 261°
2026-05-08 14:44 53.50115 -33.02820 36516 ft 469 kts 261°
2026-05-08 14:45 53.46333 -33.23776 36512 ft 468 kts 261°
2026-05-08 14:45 53.42552 -33.44496 36515 ft 467 kts 260°
2026-05-08 14:46 53.38716 -33.65278 36509 ft 465 kts 260°
2026-05-08 14:46 53.34855 -33.85969 36513 ft 464 kts 260°
2026-05-08 14:47 53.30988 -34.06463 36499 ft 464 kts 260°
2026-05-08 14:47 53.27073 -34.26988 36501 ft 463 kts 260°
2026-05-08 14:48 53.23129 -34.47444 36498 ft 462 kts 260°
2026-05-08 14:48 53.19149 -34.67869 36490 ft 463 kts 260°
2026-05-08 14:49 53.15129 -34.88283 36490 ft 463 kts 261°
2026-05-08 14:49 53.11088 -35.08586 36482 ft 465 kts 261°
2026-05-08 14:50 53.06974 -35.29041 36477 ft 466 kts 261°
2026-05-08 14:50 53.02805 -35.49557 36475 ft 468 kts 261°
2026-05-08 14:51 52.98624 -35.69920 36473 ft 469 kts 260°
2026-05-08 14:51 52.94368 -35.90436 36467 ft 470 kts 260°
2026-05-08 14:52 52.87911 -36.21164 36460 ft 471 kts 260°
2026-05-08 14:53 52.83563 -36.41592 36462 ft 470 kts 259°
2026-05-08 14:53 52.79186 -36.61956 36456 ft 469 kts 259°
2026-05-08 14:54 52.74811 -36.82109 36448 ft 468 kts 259°
2026-05-08 14:54 52.70385 -37.02302 36446 ft 466 kts 259°
2026-05-08 14:55 52.65943 -37.22371 36435 ft 466 kts 258°
2026-05-08 14:55 52.61469 -37.42392 36430 ft 466 kts 258°
2026-05-08 14:56 52.56983 -37.62273 36441 ft 466 kts 258°
2026-05-08 14:56 52.52432 -37.82256 36424 ft 466 kts 257°
2026-05-08 14:57 52.47847 -38.02190 36421 ft 467 kts 257°
2026-05-08 14:57 52.43233 -38.22065 36412 ft 466 kts 257°
2026-05-08 14:58 52.38586 -38.41903 36412 ft 466 kts 257°
2026-05-08 14:58 52.33910 -38.61682 36405 ft 465 kts 256°
2026-05-08 14:59 52.29227 -38.81310 36385 ft 465 kts 256°
2026-05-08 14:59 52.22113 -39.10792 36386 ft 465 kts 256°
2026-05-08 15:00 52.17334 -39.30378 36371 ft 465 kts 255°
2026-05-08 15:00 52.12505 -39.49995 36381 ft 467 kts 255°
2026-05-08 15:01 52.07658 -39.69507 36376 ft 469 kts 255°
2026-05-08 15:01 52.02727 -39.89193 36359 ft 471 kts 254°
2026-05-08 15:02 51.98517 -40.09185 36355 ft 464 kts 263°
2026-05-08 15:02 51.95505 -40.29570 36346 ft 465 kts 262°
2026-05-08 15:03 51.92406 -40.49802 36338 ft 465 kts 262°
2026-05-08 15:03 51.89237 -40.70128 36333 ft 465 kts 262°
2026-05-08 15:04 51.86037 -40.90414 36325 ft 464 kts 261°
2026-05-08 15:04 51.82810 -41.10628 36309 ft 463 kts 261°
2026-05-08 15:05 51.79555 -41.30775 36301 ft 462 kts 261°
2026-05-08 15:05 51.76276 -41.50823 36299 ft 460 kts 261°
2026-05-08 15:06 51.72976 -41.70765 36293 ft 459 kts 260°
2026-05-08 15:06 51.69657 -41.90594 36286 ft 457 kts 260°
2026-05-08 15:07 51.66321 -42.10294 36281 ft 454 kts 260°
2026-05-08 15:07 51.62987 -42.29765 36276 ft 452 kts 259°
2026-05-08 15:08 51.60185 -42.45962 36269 ft 451 kts 259°
2026-05-08 15:08 51.56224 -42.68613 36257 ft 448 kts 259°
2026-05-08 15:09 51.52819 -42.87856 36252 ft 447 kts 258°
2026-05-08 15:09 51.49396 -43.06994 36248 ft 445 kts 258°
2026-05-08 15:10 51.45971 -43.25943 36238 ft 443 kts 258°
2026-05-08 15:10 51.42516 -43.44863 36226 ft 441 kts 257°
2026-05-08 15:11 51.39048 -43.63661 36216 ft 439 kts 257°
2026-05-08 15:11 51.35558 -43.82385 36209 ft 437 kts 256°
2026-05-08 15:12 51.32052 -44.01007 36203 ft 436 kts 256°
2026-05-08 15:12 51.28557 -44.19393 36193 ft 435 kts 256°
2026-05-08 15:13 51.25016 -44.37832 36184 ft 433 kts 255°
2026-05-08 15:13 51.21453 -44.56212 36173 ft 432 kts 255°
2026-05-08 15:14 51.17874 -44.74502 36167 ft 431 kts 255°
2026-05-08 15:14 51.14295 -44.92612 36152 ft 430 kts 254°
2026-05-08 15:15 51.10683 -45.10725 36143 ft 429 kts 254°
2026-05-08 15:15 51.07052 -45.28766 36124 ft 428 kts 254°
2026-05-08 15:16 51.03399 -45.46749 36121 ft 427 kts 253°
2026-05-08 15:16 50.99741 -45.64591 36108 ft 427 kts 253°
2026-05-08 15:17 50.96042 -45.82478 36097 ft 426 kts 252°
2026-05-08 15:17 50.92316 -46.00329 36086 ft 426 kts 252°
2026-05-08 15:18 50.89176 -46.15253 36081 ft 426 kts 252°
2026-05-08 15:18 50.85428 -46.32923 36058 ft 425 kts 251°
2026-05-08 15:19 50.81631 -46.50670 36054 ft 425 kts 251°
2026-05-08 15:19 50.77811 -46.68369 36042 ft 425 kts 251°
2026-05-08 15:20 50.73966 -46.86029 36034 ft 425 kts 250°
2026-05-08 15:20 50.70091 -47.03678 36024 ft 425 kts 250°
2026-05-08 15:21 50.66213 -47.21190 36014 ft 425 kts 250°
2026-05-08 15:21 50.62285 -47.38778 36002 ft 425 kts 250°
2026-05-08 15:22 50.58346 -47.56275 35992 ft 425 kts 249°
2026-05-08 15:22 50.54363 -47.73811 35986 ft 425 kts 249°
2026-05-08 15:23 50.50348 -47.91348 35976 ft 426 kts 249°
2026-05-08 15:23 50.46328 -48.08759 35965 ft 425 kts 249°
2026-05-08 15:24 50.42273 -48.26187 35956 ft 425 kts 248°
2026-05-08 15:24 50.38194 -48.43569 35934 ft 424 kts 248°
2026-05-08 15:25 50.34119 -48.60795 35924 ft 422 kts 248°
2026-05-08 15:25 50.30015 -48.78016 35915 ft 421 kts 248°
2026-05-08 15:26 50.25900 -48.95141 35908 ft 420 kts 247°
2026-05-08 15:26 50.21773 -49.12181 35894 ft 418 kts 247°
2026-05-08 15:27 50.17633 -49.29145 35888 ft 417 kts 246°
2026-05-08 15:27 50.13482 -49.46025 35887 ft 416 kts 246°
2026-05-08 15:28 50.09343 -49.62732 35873 ft 416 kts 246°
2026-05-08 15:28 50.05148 -49.79536 35861 ft 415 kts 246°
2026-05-08 15:29 50.00958 -49.96205 35853 ft 415 kts 245°
2026-05-08 15:29 49.96858 -50.12988 35846 ft 415 kts 246°
2026-05-08 15:30 49.92833 -50.29765 35840 ft 415 kts 246°
2026-05-08 15:30 49.88759 -50.46530 35823 ft 415 kts 245°
2026-05-08 15:31 49.84671 -50.63219 35824 ft 414 kts 245°
2026-05-08 15:31 49.80558 -50.79885 35813 ft 413 kts 245°
2026-05-08 15:32 49.76452 -50.96401 35801 ft 413 kts 245°
2026-05-08 15:32 49.72292 -51.13011 35805 ft 413 kts 244°
2026-05-08 15:33 49.68151 -51.29422 35795 ft 412 kts 244°
2026-05-08 15:33 49.64794 -51.42637 35789 ft 412 kts 244°
2026-05-08 15:34 49.62695 -51.50863 35783 ft 412 kts 244°
2026-05-08 15:34 49.60585 -51.59101 35777 ft 412 kts 244°
2026-05-08 15:35 49.58474 -51.67314 35776 ft 412 kts 243°
2026-05-08 15:35 49.56367 -51.75482 35776 ft 412 kts 243°
2026-05-08 15:36 49.54240 -51.83700 35768 ft 413 kts 243°
2026-05-08 15:36 49.52106 -51.91922 35767 ft 413 kts 243°
2026-05-08 15:37 49.50000 -52.00161 35768 ft 415 kts 245°
2026-05-08 15:37 49.48402 -52.08707 35756 ft 418 kts 248°
2026-05-08 15:38 49.46862 -52.17352 35756 ft 418 kts 248°
2026-05-08 15:38 49.45311 -52.25972 35752 ft 418 kts 248°
2026-05-08 15:39 49.43754 -52.34555 35745 ft 418 kts 248°
2026-05-08 15:39 49.42181 -52.43167 35735 ft 418 kts 248°
2026-05-08 15:40 49.40606 -52.51748 35735 ft 417 kts 248°
2026-05-08 15:40 49.39034 -52.60271 35731 ft 417 kts 247°
2026-05-08 15:41 49.37449 -52.68828 35723 ft 416 kts 247°
2026-05-08 15:41 49.35860 -52.77364 35732 ft 415 kts 247°
2026-05-08 15:42 49.34269 -52.85872 35723 ft 415 kts 247°
2026-05-08 15:42 49.32673 -52.94370 35723 ft 414 kts 247°
2026-05-08 15:43 49.31073 -53.02850 35718 ft 413 kts 247°
2026-05-08 15:43 49.29480 -53.11253 35718 ft 412 kts 247°
2026-05-08 15:44 49.27876 -53.19677 35709 ft 411 kts 246°
2026-05-08 15:44 49.26271 -53.28074 35708 ft 410 kts 246°
2026-05-08 15:45 49.24663 -53.36445 35712 ft 409 kts 246°
2026-05-08 15:45 49.23056 -53.44770 35702 ft 409 kts 246°
2026-05-08 15:46 49.21443 -53.53093 35698 ft 408 kts 246°
2026-05-08 15:46 49.19826 -53.61405 35701 ft 407 kts 246°
2026-05-08 15:47 49.18209 -53.69677 35704 ft 406 kts 246°
2026-05-08 15:47 49.16588 -53.77929 35687 ft 405 kts 246°
2026-05-08 15:48 49.14157 -53.90246 35683 ft 405 kts 245°
2026-05-08 15:49 49.12523 -53.98479 35681 ft 405 kts 245°
2026-05-08 15:49 49.10880 -54.06723 35682 ft 405 kts 245°
2026-05-08 15:50 49.09235 -54.14949 35670 ft 405 kts 245°
2026-05-08 15:50 49.07594 -54.23114 35676 ft 405 kts 245°
2026-05-08 15:51 49.05935 -54.31336 35661 ft 405 kts 245°
2026-05-08 15:51 49.04278 -54.39518 35653 ft 403 kts 244°
2026-05-08 15:52 49.02619 -54.47675 35655 ft 402 kts 244°
2026-05-08 15:52 49.00959 -54.55803 35648 ft 401 kts 244°
2026-05-08 15:53 48.99309 -54.63846 35652 ft 399 kts 244°
2026-05-08 15:53 48.97646 -54.71919 35641 ft 399 kts 244°
2026-05-08 15:54 48.95979 -54.79971 35641 ft 399 kts 244°
2026-05-08 15:54 48.94305 -54.88032 35651 ft 399 kts 243°
2026-05-08 15:55 48.92634 -54.96046 35656 ft 400 kts 243°
2026-05-08 15:55 48.90095 -55.08157 35656 ft 401 kts 243°
2026-05-08 15:56 48.88391 -55.16251 35654 ft 402 kts 243°
2026-05-08 15:56 48.86679 -55.24348 35657 ft 403 kts 243°
2026-05-08 15:57 48.84961 -55.32441 35656 ft 403 kts 243°
2026-05-08 15:57 48.83247 -55.40491 35641 ft 402 kts 243°
2026-05-08 15:58 48.81520 -55.48561 35649 ft 402 kts 243°
2026-05-08 15:58 48.79786 -55.56638 35649 ft 402 kts 243°
2026-05-08 15:59 48.78050 -55.64689 35648 ft 401 kts 243°
2026-05-08 15:59 48.76323 -55.72666 35651 ft 400 kts 243°
2026-05-08 16:00 48.74582 -55.80676 35642 ft 399 kts 242°
2026-05-08 16:00 48.72841 -55.88654 35653 ft 398 kts 242°
2026-05-08 16:01 48.71096 -55.96622 35652 ft 398 kts 242°
2026-05-08 16:01 48.69357 -56.04530 35647 ft 398 kts 242°
2026-05-08 16:02 48.67601 -56.12487 35646 ft 398 kts 242°
2026-05-08 16:02 48.65839 -56.20440 35648 ft 398 kts 242°
2026-05-08 16:03 48.64082 -56.28337 35647 ft 398 kts 242°
2026-05-08 16:03 48.62310 -56.36277 35651 ft 399 kts 242°
2026-05-08 16:04 48.60829 -56.42890 35653 ft 399 kts 242°
2026-05-08 16:04 48.58739 -56.52184 35639 ft 400 kts 242°
2026-05-08 16:05 48.56956 -56.60081 35642 ft 400 kts 242°
2026-05-08 16:05 48.55153 -56.68042 35639 ft 401 kts 242°
2026-05-08 16:06 48.53639 -56.74703 35640 ft 400 kts 241°
2026-05-08 16:06 48.51840 -56.82586 35643 ft 400 kts 241°
2026-05-08 16:07 48.50026 -56.90507 35643 ft 399 kts 241°
2026-05-08 16:07 48.48207 -56.98422 35655 ft 399 kts 241°
2026-05-08 16:08 48.46379 -57.06343 35650 ft 400 kts 241°
2026-05-08 16:08 48.44553 -57.14228 35659 ft 400 kts 241°
2026-05-08 16:09 48.42715 -57.22136 35665 ft 400 kts 241°
2026-05-08 16:09 48.40872 -57.30036 35664 ft 400 kts 242°
2026-05-08 16:10 48.39018 -57.37957 35655 ft 401 kts 242°
2026-05-08 16:10 48.37170 -57.45822 35664 ft 401 kts 242°
2026-05-08 16:11 48.35307 -57.53728 35669 ft 401 kts 242°
2026-05-08 16:11 48.33436 -57.61627 35662 ft 400 kts 242°
2026-05-08 16:12 48.31562 -57.69516 35666 ft 400 kts 242°
2026-05-08 16:12 48.29696 -57.77344 35665 ft 400 kts 242°
2026-05-08 16:13 48.27814 -57.85209 35660 ft 400 kts 242°
2026-05-08 16:13 48.25930 -57.93060 35661 ft 399 kts 242°
2026-05-08 16:14 48.24045 -58.00881 35655 ft 398 kts 242°
2026-05-08 16:14 48.22158 -58.08685 35658 ft 398 kts 242°
2026-05-08 16:15 48.20263 -58.16492 35655 ft 398 kts 242°
2026-05-08 16:15 48.18373 -58.24250 35667 ft 398 kts 241°
2026-05-08 16:16 48.16464 -58.32061 35669 ft 399 kts 241°
2026-05-08 16:16 48.14547 -58.39875 35648 ft 400 kts 241°
2026-05-08 16:17 48.12623 -58.47691 35650 ft 400 kts 241°
2026-05-08 16:17 48.10705 -58.55458 35667 ft 400 kts 241°
2026-05-08 16:18 48.08768 -58.63273 35678 ft 400 kts 241°
2026-05-08 16:18 48.06827 -58.71082 35674 ft 400 kts 241°
2026-05-08 16:19 48.04880 -58.78883 35670 ft 400 kts 241°
2026-05-08 16:19 48.02938 -58.86636 35687 ft 400 kts 241°
2026-05-08 16:20 48.00978 -58.94436 35680 ft 401 kts 241°
2026-05-08 16:20 47.99008 -59.02250 35685 ft 401 kts 241°
2026-05-08 16:21 47.97053 -59.09979 35683 ft 400 kts 241°
2026-05-08 16:21 47.95083 -59.17737 35691 ft 399 kts 241°
2026-05-08 16:22 47.93107 -59.25491 35686 ft 400 kts 241°
2026-05-08 16:22 47.91126 -59.33240 35681 ft 399 kts 241°
2026-05-08 16:23 47.89146 -59.40964 35693 ft 399 kts 241°
2026-05-08 16:23 47.87171 -59.48637 35695 ft 399 kts 241°
2026-05-08 16:24 47.85174 -59.56366 35695 ft 399 kts 241°
2026-05-08 16:24 47.83186 -59.64038 35696 ft 399 kts 241°
2026-05-08 16:25 47.81182 -59.71749 35699 ft 399 kts 241°
2026-05-08 16:25 47.79174 -59.79446 35703 ft 399 kts 241°
2026-05-08 16:26 47.77157 -59.87152 35693 ft 400 kts 241°
2026-05-08 16:26 47.75133 -59.94859 35705 ft 400 kts 241°
2026-05-08 16:27 47.73104 -60.02560 35709 ft 400 kts 241°
2026-05-08 16:27 47.71066 -60.10272 35709 ft 401 kts 241°
2026-05-08 16:28 47.69032 -60.17938 35713 ft 402 kts 241°
2026-05-08 16:28 47.66979 -60.25657 35714 ft 402 kts 241°
2026-05-08 16:29 47.64914 -60.33391 35719 ft 403 kts 241°
2026-05-08 16:29 47.62844 -60.41119 35712 ft 403 kts 241°
2026-05-08 16:30 47.60779 -60.48804 35719 ft 404 kts 241°
2026-05-08 16:30 47.58696 -60.56533 35723 ft 404 kts 241°
2026-05-08 16:31 47.56598 -60.64288 35718 ft 405 kts 241°
2026-05-08 16:31 47.54496 -60.72032 35727 ft 405 kts 241°
2026-05-08 16:32 47.52400 -60.79726 35719 ft 405 kts 241°
2026-05-08 16:32 47.50283 -60.87488 35910 ft 407 kts 237°
2026-05-08 16:33 47.48143 -60.95286 35783 ft 411 kts 237°
2026-05-08 16:33 47.45985 -61.03130 35737 ft 412 kts 237°
2026-05-08 16:34 47.43825 -61.10965 35723 ft 411 kts 237°
2026-05-08 16:34 47.41679 -61.18725 35726 ft 410 kts 237°
2026-05-08 16:35 47.39512 -61.26527 35725 ft 410 kts 238°
2026-05-08 16:35 47.37338 -61.34326 35722 ft 411 kts 238°
2026-05-08 16:36 47.35154 -61.42137 35718 ft 412 kts 238°
2026-05-08 16:36 47.32961 -61.49954 35714 ft 413 kts 238°
2026-05-08 16:37 47.30769 -61.57745 35705 ft 414 kts 238°
2026-05-08 16:37 47.28549 -61.65608 35707 ft 416 kts 238°
2026-05-08 16:38 47.26321 -61.73479 35710 ft 417 kts 239°
2026-05-08 16:38 47.24077 -61.81375 35710 ft 418 kts 239°
2026-05-08 16:39 47.21839 -61.89228 35720 ft 420 kts 239°
2026-05-08 16:39 47.19576 -61.97144 35717 ft 420 kts 239°
2026-05-08 16:40 47.17307 -62.05058 35725 ft 420 kts 239°
2026-05-08 16:40 47.15029 -62.12971 35731 ft 419 kts 239°
2026-05-08 16:41 47.12748 -62.20871 35730 ft 419 kts 239°
2026-05-08 16:42 47.09340 -62.32625 35731 ft 419 kts 239°
2026-05-08 16:42 47.07052 -62.40486 35736 ft 419 kts 239°
2026-05-08 16:43 47.04757 -62.48345 35735 ft 419 kts 239°
2026-05-08 16:43 47.02458 -62.56193 35721 ft 419 kts 239°
2026-05-08 16:44 47.00152 -62.64038 35728 ft 419 kts 239°
2026-05-08 16:44 46.97840 -62.71880 35728 ft 420 kts 239°
2026-05-08 16:45 46.95515 -62.79742 35726 ft 421 kts 239°
2026-05-08 16:45 46.93194 -62.87561 35726 ft 421 kts 239°
2026-05-08 16:46 46.90850 -62.95436 35726 ft 422 kts 240°
2026-05-08 16:46 46.88495 -63.03323 35728 ft 423 kts 240°
2026-05-08 16:47 46.86130 -63.11219 35727 ft 424 kts 240°
2026-05-08 16:47 46.83770 -63.19071 35724 ft 425 kts 240°
2026-05-08 16:48 46.81384 -63.26990 35721 ft 426 kts 240°
2026-05-08 16:48 46.78988 -63.34910 35721 ft 427 kts 240°
2026-05-08 16:49 46.76583 -63.42838 35721 ft 427 kts 240°
2026-05-08 16:49 46.74187 -63.50711 35722 ft 428 kts 240°
2026-05-08 16:50 46.71762 -63.58656 35719 ft 429 kts 240°
2026-05-08 16:50 46.69331 -63.66593 35719 ft 429 kts 240°
2026-05-08 16:51 46.66892 -63.74533 35708 ft 429 kts 240°
2026-05-08 16:51 46.64447 -63.82468 35714 ft 430 kts 240°
2026-05-08 16:52 46.61992 -63.90408 35712 ft 430 kts 240°
2026-05-08 16:52 46.59545 -63.98298 35712 ft 431 kts 241°
2026-05-08 16:53 46.55834 -64.10218 35717 ft 431 kts 241°
2026-05-08 16:53 46.53771 -64.16819 35713 ft 432 kts 241°
2026-05-08 16:54 46.51278 -64.24773 35715 ft 432 kts 241°
2026-05-08 16:54 46.48375 -64.34006 35713 ft 432 kts 241°
2026-05-08 16:55 46.46280 -64.40647 35720 ft 432 kts 241°
2026-05-08 16:55 46.43775 -64.48568 35715 ft 432 kts 241°
2026-05-08 16:56 46.41277 -64.56439 35715 ft 433 kts 241°
2026-05-08 16:56 46.38751 -64.64375 35715 ft 433 kts 241°
2026-05-08 16:57 46.36222 -64.72298 35713 ft 433 kts 241°
2026-05-08 16:57 46.33686 -64.80216 35708 ft 434 kts 241°
2026-05-08 16:58 46.31138 -64.88146 35711 ft 434 kts 241°
2026-05-08 16:58 46.28599 -64.96026 35714 ft 435 kts 241°
2026-05-08 16:59 46.26041 -65.03939 35717 ft 435 kts 241°
2026-05-08 16:59 46.23475 -65.11855 35724 ft 435 kts 241°
2026-05-08 17:00 46.20897 -65.19783 35727 ft 435 kts 242°
2026-05-08 17:00 46.18317 -65.27690 35731 ft 435 kts 242°
2026-05-08 17:01 46.15729 -65.35601 35739 ft 436 kts 242°
2026-05-08 17:01 46.13135 -65.43505 35731 ft 436 kts 242°
2026-05-08 17:02 46.10550 -65.51357 35734 ft 436 kts 242°
2026-05-08 17:02 46.07939 -65.59264 35733 ft 437 kts 242°
2026-05-08 17:03 46.05322 -65.67164 35732 ft 437 kts 242°
2026-05-08 17:03 46.02699 -65.75060 35730 ft 437 kts 242°
2026-05-08 17:04 46.00071 -65.82948 35732 ft 437 kts 242°
2026-05-08 17:04 45.97436 -65.90831 35737 ft 437 kts 242°
2026-05-08 17:05 45.94812 -65.98660 35733 ft 437 kts 242°
2026-05-08 17:05 45.92167 -66.06526 35740 ft 437 kts 242°
2026-05-08 17:06 45.89509 -66.14410 35727 ft 438 kts 242°
2026-05-08 17:06 45.86857 -66.22250 35731 ft 438 kts 242°
2026-05-08 17:07 45.84191 -66.30109 35730 ft 437 kts 242°
2026-05-08 17:07 45.81525 -66.37945 35732 ft 437 kts 242°
2026-05-08 17:08 45.78847 -66.45792 35733 ft 438 kts 242°
2026-05-08 17:08 45.76182 -66.53577 35731 ft 438 kts 242°
2026-05-08 17:09 45.73496 -66.61403 35736 ft 438 kts 242°
2026-05-08 17:09 45.70802 -66.69227 35738 ft 438 kts 242°
2026-05-08 17:10 45.68102 -66.77047 35746 ft 438 kts 242°
2026-05-08 17:10 45.65397 -66.84855 35753 ft 438 kts 242°
2026-05-08 17:11 45.62679 -66.92681 35760 ft 439 kts 242°
2026-05-08 17:11 45.59964 -67.00475 35760 ft 439 kts 242°
2026-05-08 17:12 45.57239 -67.08276 35768 ft 439 kts 242°
2026-05-08 17:12 45.54526 -67.16018 35766 ft 439 kts 242°
2026-05-08 17:13 45.51790 -67.23804 35770 ft 439 kts 243°
2026-05-08 17:13 45.49046 -67.31591 35772 ft 439 kts 243°
2026-05-08 17:14 45.46296 -67.39372 35776 ft 439 kts 243°
2026-05-08 17:14 45.43544 -67.47137 35780 ft 439 kts 243°
2026-05-08 17:15 45.40799 -67.54859 35785 ft 439 kts 243°
2026-05-08 17:15 45.38031 -67.62628 35786 ft 439 kts 243°
2026-05-08 17:16 45.35232 -67.70361 35790 ft 439 kts 240°
2026-05-08 17:16 45.31761 -67.77512 35796 ft 440 kts 231°
2026-05-08 17:17 45.27691 -67.83958 35795 ft 440 kts 229°
2026-05-08 17:17 45.23569 -67.90376 35795 ft 440 kts 229°
2026-05-08 17:18 45.19453 -67.96805 35800 ft 440 kts 229°
2026-05-08 17:18 45.15344 -68.03237 35800 ft 440 kts 229°
2026-05-08 17:19 45.11234 -68.09665 35801 ft 440 kts 229°
2026-05-08 17:19 45.07143 -68.16052 35801 ft 440 kts 229°
2026-05-08 17:20 45.03012 -68.22482 35809 ft 440 kts 229°
2026-05-08 17:20 44.98907 -68.28859 35805 ft 441 kts 229°
2026-05-08 17:21 44.94771 -68.35268 35807 ft 441 kts 229°
2026-05-08 17:21 44.90638 -68.41658 35813 ft 441 kts 229°
2026-05-08 17:22 44.86490 -68.48056 35805 ft 441 kts 229°
2026-05-08 17:22 44.82350 -68.54429 35807 ft 441 kts 229°
2026-05-08 17:23 44.78227 -68.60759 35809 ft 441 kts 229°
2026-05-08 17:23 44.74082 -68.67110 35806 ft 440 kts 229°
2026-05-08 17:24 44.69930 -68.73455 35806 ft 440 kts 229°
2026-05-08 17:24 44.65777 -68.79789 35808 ft 440 kts 229°
2026-05-08 17:25 44.61653 -68.86064 35810 ft 440 kts 229°
2026-05-08 17:25 44.57503 -68.92363 35819 ft 439 kts 229°
2026-05-08 17:26 44.53347 -68.98659 35818 ft 439 kts 229°
2026-05-08 17:26 44.49186 -69.04948 35824 ft 439 kts 229°
2026-05-08 17:27 44.45023 -69.11225 35824 ft 439 kts 229°
2026-05-08 17:27 44.40868 -69.17477 35816 ft 439 kts 229°
2026-05-08 17:28 44.36736 -69.23679 35832 ft 438 kts 229°
2026-05-08 17:28 44.32567 -69.29924 35816 ft 438 kts 230°
2026-05-08 17:29 44.28407 -69.36141 35817 ft 438 kts 230°
2026-05-08 17:29 44.24242 -69.42351 35838 ft 438 kts 230°
2026-05-08 17:30 44.20069 -69.48560 35837 ft 438 kts 230°
2026-05-08 17:30 44.15931 -69.54702 35837 ft 438 kts 230°
2026-05-08 17:31 44.11753 -69.60892 35841 ft 437 kts 230°
2026-05-08 17:31 44.07573 -69.67070 35842 ft 437 kts 230°
2026-05-08 17:32 44.03420 -69.73195 35840 ft 437 kts 230°
2026-05-08 17:32 43.99242 -69.79342 35837 ft 438 kts 230°
2026-05-08 17:33 43.95053 -69.85493 35847 ft 438 kts 230°
2026-05-08 17:33 43.90861 -69.91636 35850 ft 438 kts 230°
2026-05-08 17:34 43.86687 -69.97737 35848 ft 438 kts 230°
2026-05-08 17:34 43.82474 -70.03882 35848 ft 439 kts 230°
2026-05-08 17:35 43.78283 -70.09982 35846 ft 439 kts 230°
2026-05-08 17:35 43.74075 -70.16095 35843 ft 439 kts 230°
2026-05-08 17:36 43.69860 -70.22202 35836 ft 439 kts 230°
2026-05-08 17:36 43.65641 -70.28303 35843 ft 438 kts 230°
2026-05-08 17:37 43.61422 -70.34392 35842 ft 439 kts 230°
2026-05-08 17:37 43.57200 -70.40472 35839 ft 439 kts 230°
2026-05-08 17:38 43.52968 -70.46552 35845 ft 439 kts 230°
2026-05-08 17:38 43.49453 -70.51595 35849 ft 439 kts 230°
2026-05-08 17:39 43.44532 -70.58635 35844 ft 438 kts 229°
2026-05-08 17:39 43.42204 -70.61358 35842 ft 444 kts 218°
2026-05-08 17:39 43.39397 -70.63229 35844 ft 451 kts 205°
2026-05-08 17:40 43.34441 -70.65547 35851 ft 453 kts 204°
2026-05-08 17:40 43.28457 -70.68372 35852 ft 454 kts 205°
2026-05-08 17:41 43.22483 -70.71268 35850 ft 455 kts 205°
2026-05-08 17:41 43.16509 -70.74190 35841 ft 456 kts 205°
2026-05-08 17:42 43.10566 -70.77094 35839 ft 456 kts 206°
2026-05-08 17:42 43.04585 -70.80007 35836 ft 456 kts 206°
2026-05-08 17:43 42.98600 -70.82916 35836 ft 455 kts 206°
2026-05-08 17:43 42.92687 -70.85784 35841 ft 454 kts 206°
2026-05-08 17:44 42.86738 -70.88665 35848 ft 453 kts 206°
2026-05-08 17:44 42.80801 -70.91533 35870 ft 453 kts 206°
2026-05-08 17:45 42.74848 -70.94403 35865 ft 452 kts 206°
2026-05-08 17:45 42.68910 -70.97264 35877 ft 452 kts 206°
2026-05-08 17:46 42.62974 -71.00119 35867 ft 452 kts 206°
2026-05-08 17:46 42.57074 -71.02950 35870 ft 452 kts 207°
2026-05-08 17:47 42.44495 -71.08968 35856 ft 452 kts 207°
2026-05-08 17:47 42.24602 -71.18434 35870 ft 451 kts 207°
2026-05-08 17:48 41.97031 -71.31449 35885 ft 450 kts 207°
2026-05-08 17:48 41.73418 -71.42544 35895 ft 444 kts 211°
2026-05-08 17:49 41.64118 -71.52168 35890 ft 421 kts 228°
2026-05-08 17:49 41.55120 -71.62282 35888 ft 422 kts 227°
2026-05-08 17:49 41.37134 -71.82203 35926 ft 422 kts 227°
2026-05-08 17:50 41.24188 -71.96449 35756 ft 415 kts 227°
2026-05-08 17:50 41.21962 -71.98890 35287 ft 413 kts 228°
2026-05-08 17:50 41.19759 -72.01303 34836 ft 408 kts 228°
2026-05-08 17:51 41.17583 -72.03689 34393 ft 403 kts 229°
2026-05-08 17:51 41.15430 -72.06046 33933 ft 399 kts 229°
2026-05-08 17:51 41.13292 -72.08384 33372 ft 395 kts 229°
2026-05-08 17:51 41.11256 -72.10744 32875 ft 380 kts 236°
2026-05-08 17:52 41.09746 -72.13451 32428 ft 362 kts 248°
2026-05-08 17:52 41.08744 -72.16477 31902 ft 348 kts 257°
2026-05-08 17:52 41.07284 -72.22472 30964 ft 340 kts 258°
2026-05-08 17:53 41.06566 -72.25448 30477 ft 337 kts 258°
2026-05-08 17:53 41.05850 -72.28397 30021 ft 334 kts 258°
2026-05-08 17:53 41.05137 -72.31312 29472 ft 331 kts 258°
2026-05-08 17:53 41.04426 -72.34196 28971 ft 327 kts 258°
2026-05-08 17:54 41.03721 -72.37038 28506 ft 323 kts 258°
2026-05-08 17:54 41.03023 -72.39844 28050 ft 319 kts 258°
2026-05-08 17:54 41.02333 -72.42618 27598 ft 315 kts 258°
2026-05-08 17:54 41.01648 -72.45363 27149 ft 312 kts 258°
2026-05-08 17:55 41.00977 -72.48048 26715 ft 310 kts 257°
2026-05-08 17:55 41.00303 -72.50743 26298 ft 307 kts 257°
2026-05-08 17:55 40.99633 -72.53416 25888 ft 305 kts 257°
2026-05-08 17:55 40.98967 -72.56071 25468 ft 303 kts 257°
2026-05-08 17:56 40.98301 -72.58725 25052 ft 301 kts 257°
2026-05-08 17:56 40.97642 -72.61347 24636 ft 299 kts 257°
2026-05-08 17:56 40.96986 -72.63956 24236 ft 298 kts 257°
2026-05-08 17:56 40.96340 -72.66519 23845 ft 297 kts 257°
2026-05-08 17:57 40.95689 -72.69104 23439 ft 296 kts 257°
2026-05-08 17:57 40.95039 -72.71677 22970 ft 294 kts 257°
2026-05-08 17:57 40.94393 -72.74230 22543 ft 292 kts 257°
2026-05-08 17:57 40.93752 -72.76759 22141 ft 289 kts 257°
2026-05-08 17:58 40.92913 -72.79157 21737 ft 291 kts 244°
2026-05-08 17:58 40.91603 -72.81227 21377 ft 297 kts 231°
2026-05-08 17:58 40.89966 -72.82924 21023 ft 299 kts 226°
2026-05-08 17:58 40.88272 -72.84518 20649 ft 297 kts 225°
2026-05-08 17:59 40.86597 -72.86076 20329 ft 293 kts 225°
2026-05-08 17:59 40.84942 -72.87627 19982 ft 291 kts 225°
2026-05-08 17:59 40.83291 -72.89189 19638 ft 293 kts 225°
2026-05-08 17:59 40.81616 -72.90786 19288 ft 301 kts 225°
2026-05-08 18:00 40.79901 -72.92427 18924 ft 306 kts 225°
2026-05-08 18:00 40.76446 -72.95720 18146 ft 304 kts 225°
2026-05-08 18:00 40.74755 -72.97332 17732 ft 300 kts 225°
2026-05-08 18:01 40.73069 -72.98939 17348 ft 296 kts 225°
2026-05-08 18:01 40.71406 -73.00518 16988 ft 293 kts 225°
2026-05-08 18:01 40.69757 -73.02078 16628 ft 290 kts 225°
2026-05-08 18:01 40.68147 -73.03591 16276 ft 287 kts 225°
2026-05-08 18:02 40.66530 -73.05097 15943 ft 283 kts 225°
2026-05-08 18:02 40.65445 -73.06098 15768 ft 279 kts 225°
2026-05-08 18:02 40.63338 -73.08026 15157 ft 281 kts 225°
2026-05-08 18:02 40.61721 -73.09498 14662 ft 284 kts 225°
2026-05-08 18:03 40.60084 -73.10976 14147 ft 287 kts 225°
2026-05-08 18:03 40.58425 -73.12466 13630 ft 290 kts 225°
2026-05-08 18:03 40.56754 -73.13968 13094 ft 291 kts 225°
2026-05-08 18:03 40.55088 -73.15483 12664 ft 288 kts 225°
2026-05-08 18:04 40.53590 -73.17098 12298 ft 267 kts 238°
2026-05-08 18:04 40.52535 -73.19021 12017 ft 254 kts 245°
2026-05-08 18:04 40.51616 -73.20978 11675 ft 249 kts 246°
2026-05-08 18:04 40.50737 -73.22926 11296 ft 247 kts 246°
2026-05-08 18:05 40.49875 -73.24876 10892 ft 244 kts 246°
2026-05-08 18:05 40.49047 -73.26792 10245 ft 241 kts 246°
2026-05-08 18:05 40.48239 -73.28725 9524 ft 241 kts 247°
2026-05-08 18:05 40.47458 -73.30640 8788 ft 239 kts 247°
2026-05-08 18:06 40.46684 -73.32565 8088 ft 237 kts 247°
2026-05-08 18:06 40.45930 -73.34478 7402 ft 235 kts 247°
2026-05-08 18:06 40.45194 -73.36384 6707 ft 233 kts 247°
2026-05-08 18:06 40.44470 -73.38295 6005 ft 231 kts 247°
2026-05-08 18:07 40.43774 -73.40154 5647 ft 220 kts 247°
2026-05-08 18:07 40.43103 -73.41945 5638 ft 223 kts 247°
2026-05-08 18:07 40.42528 -73.43899 5453 ft 230 kts 263°
2026-05-08 18:07 40.42712 -73.45945 5297 ft 236 kts 291°
2026-05-08 18:08 40.43724 -73.47655 5005 ft 241 kts 318°
2026-05-08 18:08 40.45149 -73.48812 4651 ft 241 kts 326°
2026-05-08 18:08 40.46638 -73.49851 4194 ft 240 kts 327°
2026-05-08 18:08 40.48075 -73.50830 3836 ft 225 kts 327°
2026-05-08 18:09 40.49445 -73.51758 3560 ft 216 kts 327°
2026-05-08 18:09 40.50748 -73.52640 3360 ft 203 kts 327°
2026-05-08 18:09 40.51978 -73.53462 3328 ft 197 kts 327°
2026-05-08 18:09 40.53191 -73.54270 3301 ft 193 kts 327°
2026-05-08 18:10 40.54385 -73.55070 3290 ft 193 kts 326°
2026-05-08 18:10 40.55376 -73.56163 3204 ft 184 kts 299°
2026-05-08 18:10 40.56021 -73.57576 3139 ft 177 kts 298°
2026-05-08 18:10 40.56635 -73.58887 3040 ft 168 kts 297°
2026-05-08 18:11 40.57233 -73.60191 2838 ft 165 kts 297°
2026-05-08 18:11 40.57817 -73.61474 2644 ft 161 kts 297°
2026-05-08 18:11 40.58386 -73.62726 2400 ft 156 kts 297°
2026-05-08 18:11 40.58926 -73.63918 2197 ft 151 kts 297°
2026-05-08 18:12 40.59455 -73.65082 2013 ft 145 kts 298°
2026-05-08 18:12 40.59953 -73.66177 1827 ft 135 kts 297°
2026-05-08 18:12 40.60435 -73.67240 1577 ft 133 kts 297°
2026-05-08 18:12 40.60894 -73.68252 1431 ft 131 kts 297°
2026-05-08 18:13 40.61367 -73.69294 1246 ft 132 kts 297°
2026-05-08 18:13 40.61833 -73.70322 1110 ft 130 kts 297°
2026-05-08 18:13 40.62295 -73.71356 852 ft 130 kts 296°
2026-05-08 18:13 40.62750 -73.72341 708 ft 122 kts 298°
2026-05-08 18:14 40.63172 -73.73295 544 ft 122 kts 296°
2026-05-08 18:14 40.63603 -73.74236 380 ft 119 kts 298°
2026-05-08 18:14 40.64034 -73.75189 245 ft 127 kts 300°
2026-05-08 18:14 40.64492 -73.76196 64 ft 127 kts 301°
2026-05-08 18:15 40.64918 -73.77135 27 ft 106 kts 301°
2026-05-08 18:15 40.65219 -73.77797 30 ft 62 kts 301°
2026-05-08 18:15 40.65370 -73.78131 32 ft 37 kts 301°
2026-05-08 18:15 40.65432 -73.78274 31 ft 10 kts 287°
2026-05-08 18:16 40.65412 -73.78360 30 ft 11 kts 232°
2026-05-08 18:16 40.65383 -73.78416 29 ft 0 kts 237°
2026-05-08 18:18 40.65369 -73.78446 30 ft 10 kts 239°
2026-05-08 18:18 40.65319 -73.78454 27 ft 9 kts 158°
2026-05-08 18:18 40.65265 -73.78471 29 ft 9 kts 233°
2026-05-08 18:18 40.65232 -73.78545 29 ft 10 kts 240°
2026-05-08 18:19 40.65196 -73.78627 28 ft 11 kts 240°
2026-05-08 18:19 40.65175 -73.78697 28 ft 7 kts 278°
2026-05-08 18:19 40.65204 -73.78747 27 ft 7 kts 315°
2026-05-08 18:19 40.65221 -73.78809 30 ft 7 kts 273°
2026-05-08 18:20 40.65217 -73.78879 25 ft 8 kts 270°
2026-05-08 18:20 40.65225 -73.78954 29 ft 8 kts 282°
2026-05-08 18:20 40.65242 -73.79027 29 ft 8 kts 288°
2026-05-08 18:20 40.65260 -73.79099 27 ft 8 kts 288°
2026-05-08 18:21 40.65278 -73.79173 25 ft 8 kts 285°
2026-05-08 18:21 40.65286 -73.79249 27 ft 8 kts 272°
2026-05-08 18:21 40.65278 -73.79329 29 ft 9 kts 254°
2026-05-08 18:21 40.65249 -73.79416 27 ft 11 kts 243°
2026-05-08 18:22 40.65213 -73.79503 27 ft 11 kts 242°
2026-05-08 18:22 40.65188 -73.79564 28 ft 0 kts 242°
2026-05-08 18:22 40.65184 -73.79575 27 ft 6 kts 242°
2026-05-08 18:23 40.65148 -73.79664 28 ft 12 kts 242°
2026-05-08 18:23 40.65118 -73.79726 27 ft 12 kts 223°
2026-05-08 18:23 40.65039 -73.79780 29 ft 13 kts 204°
2026-05-08 18:23 40.64944 -73.79805 27 ft 15 kts 183°
2026-05-08 18:24 40.64800 -73.79798 28 ft 17 kts 177°
2026-05-08 18:24 40.64724 -73.79766 26 ft 18 kts 150°
2026-05-08 18:24 40.64625 -73.79671 29 ft 18 kts 143°
2026-05-08 18:24 40.64514 -73.79604 29 ft 18 kts 167°
2026-05-08 18:25 40.64383 -73.79590 27 ft 19 kts 182°
2026-05-08 18:25 40.64260 -73.79599 27 ft 18 kts 183°
2026-05-08 18:25 40.64130 -73.79602 28 ft 19 kts 165°
2026-05-08 18:25 40.64050 -73.79462 27 ft 20 kts 118°
2026-05-08 18:26 40.63980 -73.79297 30 ft 21 kts 120°
2026-05-08 18:26 40.63902 -73.79124 28 ft 22 kts 120°
2026-05-08 18:26 40.63826 -73.78953 31 ft 22 kts 120°
2026-05-08 18:26 40.63748 -73.78779 30 ft 22 kts 120°
2026-05-08 18:27 40.63670 -73.78606 31 ft 22 kts 121°
2026-05-08 18:27 40.63617 -73.78492 31 ft 22 kts 121°
2026-05-08 18:27 40.63511 -73.78263 30 ft 22 kts 121°
2026-05-08 18:27 40.63457 -73.78144 29 ft 10 kts 121°
2026-05-08 18:28 40.63418 -73.78058 30 ft 12 kts 117°
2026-05-08 18:28 40.63402 -73.77953 25 ft 9 kts 84°
2026-05-08 18:28 40.63437 -73.77883 28 ft 10 kts 40°
2026-05-08 18:28 40.63502 -73.77836 28 ft 11 kts 29°
2026-05-08 18:29 40.63565 -73.77844 29 ft 10 kts 322°
2026-05-08 18:29 40.63624 -73.77890 29 ft 10 kts 344°
2026-05-08 18:29 40.63693 -73.77902 28 ft 10 kts 353°
2026-05-08 18:29 40.63755 -73.77912 29 ft 5 kts 352°
2026-05-08 18:30 40.63785 -73.77938 29 ft 5 kts 305°
2026-05-08 18:30 40.63787 -73.77986 30 ft 4 kts 263°
2026-05-08 18:30 40.63784 -73.78007 29 ft 0 kts 262°
2026-05-08 18:30 40.63784 -73.78017 29 ft 2 kts 263°
2026-05-08 18:31 40.63783 -73.78025 29 ft 0 kts 263°